Showing default

SKYSAT C7, 42991

Orbit data source: Space-Track

SKYSAT C7, 42991 is a payload satellite owned by Terra Bella (US) in SSO that was launched on Tue, 31 Oct 2017 UTC via a MINOTAUR-C 3210 launch vehicle from the Air Force Western Test Range (AFWTR). Payload-class satellites include a variety of spacecraft equipped with specific instruments for various scientific and technological missions. These include communications satellites like Starlink; space stations such as the ISS; scientific satellites like the Hubble; Earth observation satellites from companies like Planet Labs, Umbra, and HawkEye 360; GPS; miniature CubeSats for education and research; and military/defense satellites.

Loading next visibility...
Identifier
42991, 2017-068E
Orbit
SSO
Country
Flag of USUS
Related business
Manufacturer
Maxar SSL
Mission
Operational Commercial Imaging
Bus & Motor
SKYSAT-GEN2, Unknown motor
Mass
110 kg wet, 110 kg dry
Launch date (UTC)
2017-10-31 (8 years ago)
Launch vehicle
MINOTAUR-C 3210
Launch site
Air Force Western Test Range (AFWTR)
Object type
Payload
Rocket body
Debris
Shape & HBR
Box, 0.6 m
Radar Cross Section
0.888 m², Medium (>0.1 m² and < 1m²)

Expand to show TLE details & history
Last TLE update: 9 hours ago

TLE from 9 hours ago
0 SKYSAT C7
1 42991U 17068E   25260.89444593  .00009785  00000-0  32506-3 0  9996
2 42991  97.4193  31.7342 0005155  25.8555 334.2943 15.31399328440635
Epoch: 2025-09-17T21:28Z
TLE epoch observation values (Epoch: 2025-09-17T21:28:00.128Z)
Latitude
-0.00001°
Longitude
72.66982°
Altitude
471.56 km
Speed
7.632 km/s
True Right ascension
02h 06m 56s
True Declination
0° 00' 00"
Sunlit
Object was in full shadow at epoch
Visualization orbit readout
Latitude
Unknown
Longitude
Unknown
Altitude
Unknown
Speed
Unknown
Apparent Right ascension
Unknown
Apparent Declination
Unknown
Sunlit
N/A
Visualization observer readout
Local Sidereal Time
23:08:22
Azimuth
Unknown
Elevation
Unknown
Doppler factor
Unknown
Orbital elements
Apogee altitude
472.117 km
Perigee altitude
465.058 km
Semi-major axis
6,846.725 km
Eccentricity
0.00052
Inclination
97.4193°
RAAN
31.7342°
Arg. of periapsis
25.8555°
True anomaly
334.26866°
Mean anomaly
334.2943°
Eccentric anomaly
334.28148°
Mean motion
3.83106 °/min
Orbital period
93.97 mins
BSTAR
0.00032506
Loading maneuver chart data...
Computing Atmospheric mass density...
Loading historical data...
Loading historical data...
Loading historical data...
Loading historical data...
Loading historical data...
Loading historical data...
Loading historical data...

Documentation

Showing up to 5 results
|